Fecha;EUA;CER;SPREAD (EUA - CER)
03-01-2012;6.25;3.80;"2,45"
04-01-2012;6.19;3.80;"2,39"
05-01-2012;6.28;3.65;"2,63"
09-01-2012;6.51;3.76;"2,75"
10-01-2012;6.79;3.98;"2,81"
11-01-2012;6.76;3.74;"3,02"
12-01-2012;6.82;3.96;"2,86"
13-01-2012;6.69;3.93;"2,76"
16-01-2012;6.38;3.52;"2,86"
17-01-2012;6.45;3.69;"2,76"
18-01-2012;6.60;3.77;"2,83"
19-01-2012;6.95;4.01;"2,94"
20-01-2012;6.78;3.85;"2,93"
23-01-2012;6.78;3.70;"3,08"
24-01-2012;7.09;4.03;"3,06"
25-01-2012;7.09;3.98;"3,11"
26-01-2012;7.40;4.03;"3,37"
27-01-2012;7.80;4.35;"3,45"
30-01-2012;7.52;3.97;"3,55"
31-01-2012;7.88;4.15;"3,73"
01-02-2012;8.15;4.30;"3,85"
02-02-2012;8.42;4.37;"4,05"
03-02-2012;8.25;4.20;"4,05"
06-02-2012;8.35;4.35;4
07-02-2012;8.37;4.35;"4,02"
08-02-2012;8.06;4.12;"3,94"
09-02-2012;7.88;3.97;"3,91"
10-02-2012;7.61;3.93;"3,68"
13-02-2012;7.37;3.81;"3,56"
14-02-2012;7.81;4.12;"3,69"
15-02-2012;7.85;4.35;"3,5"
16-02-2012;8.60;4.82;"3,78"
17-02-2012;8.86;5.03;"3,83"
20-02-2012;8.58;4.85;"3,73"
21-02-2012;8.85;5.03;"3,82"
22-02-2012;8.89;5.10;"3,79"
23-02-2012;8.53;4.81;"3,72"
24-02-2012;9.19;5.30;"3,89"
27-02-2012;9.29;5.37;"3,92"
28-02-2012;8.95;5.18;"3,77"
29-02-2012;8.35;4.77;"3,58"
01-03-2012;8.62;4.85;"3,77"
02-03-2012;8.78;4.86;"3,92"
05-03-2012;8.58;4.76;"3,82"
06-03-2012;8.25;4.48;"3,77"
07-03-2012;8.40;4.58;"3,82"
08-03-2012;8.25;4.50;"3,75"
09-03-2012;7.80;4.10;"3,7"
12-03-2012;7.59;4.00;"3,59"
13-03-2012;7.60;3.97;"3,63"
14-03-2012;7.85;4.10;"3,75"
15-03-2012;7.78;4.03;"3,75"
16-03-2012;7.65;4.06;"3,59"
19-03-2012;7.62;3.98;"3,64"
20-03-2012;6.99;3.75;"3,24"
21-03-2012;7.19;4.20;"2,99"
22-03-2012;6.70;4.10;"2,6"
23-03-2012;6.80;4.12;"2,68"
26-03-2012;6.70;3.96;"2,74"
27-03-2012;7.05;4.20;"2,85"
28-03-2012;6.90;4.00;"2,9"
29-03-2012;6.69;3.97;"2,72"
30-03-2012;6.74;3.81;"2,93"
02-04-2012;6.12;3.62;"2,5"
03-04-2012;6.28;3.63;"2,65"
04-04-2012;6.05;3.57;"2,48"
05-04-2012;6.60;3.84;"2,76"
10-04-2012;6.62;4.02;"2,6"
11-04-2012;6.81;4.12;"2,69"
12-04-2012;6.98;4.25;"2,73"
13-04-2012;7.10;4.30;"2,8"
16-04-2012;6.70;4.06;"2,64"
17-04-2012;7.00;4.28;"2,72"
18-04-2012;7.09;4.28;"2,81"
19-04-2012;7.19;4.25;"2,94"
20-04-2012;7.28;4.25;"3,03"
23-04-2012;7.08;4.20;"2,88"
24-04-2012;7.03;4.12;"2,91"
25-04-2012;7.00;4.08;"2,92"
26-04-2012;7.11;4.12;"2,99"
27-04-2012;7.24;4.15;"3,09"
30-04-2012;7.37;3.90;"3,47"
01-05-2012;7.39;4.00;"3,39"
02-05-2012;7.06;3.86;"3,2"
03-05-2012;6.99;3.78;"3,21"
04-05-2012;6.60;3.60;3
07-05-2012;6.59;3.58;"3,01"
08-05-2012;6.64;3.62;"3,02"
09-05-2012;6.68;3.70;"2,98"
10-05-2012;6.62;3.60;"3,02"
11-05-2012;6.67;3.70;"2,97"
14-05-2012;6.49;3.60;"2,89"
15-05-2012;6.40;3.60;"2,8"
16-05-2012;6.38;3.75;"2,63"
17-05-2012;6.33;3.66;"2,67"
18-05-2012;6.30;3.50;"2,8"
21-05-2012;6.58;3.58;3
22-05-2012;6.89;3.75;"3,14"
23-05-2012;6.54;3.60;"2,94"
24-05-2012;6.70;3.62;"3,08"
25-05-2012;6.73;3.60;"3,13"
28-05-2012;6.80;3.70;"3,1"
29-05-2012;6.51;3.52;"2,99"
30-05-2012;6.37;3.50;"2,87"
31-05-2012;6.20;3.45;"2,75"
01-06-2012;6.12;3.45;"2,67"
04-06-2012;6.31;3.45;"2,86"
05-06-2012;6.32;3.42;"2,9"
06-06-2012;6.30;3.40;"2,9"
07-06-2012;6.39;3.40;"2,99"
08-06-2012;6.50;3.50;3
11-06-2012;6.53;3.45;"3,08"
12-06-2012;6.59;3.40;"3,19"
13-06-2012;6.60;3.40;"3,2"
14-06-2012;6.79;3.55;"3,24"
15-06-2012;7.15;3.65;"3,5"
18-06-2012;7.28;3.82;"3,46"
19-06-2012;7.50;3.90;"3,6"
20-06-2012;7.40;3.90;"3,5"
21-06-2012;7.35;3.95;"3,4"
22-06-2012;8.00;4.15;"3,85"
25-06-2012;8.08;4.12;"3,96"
26-06-2012;7.85;4.05;"3,8"
27-06-2012;7.87;4.04;"3,83"
28-06-2012;7.88;4.04;"3,84"
29-06-2012;8.11;4.17;"3,94"
02-07-2012;7.98;4.16;"3,82"
03-07-2012;8.12;4.19;"3,93"
04-07-2012;8.15;4.22;"3,93"
05-07-2012;8.19;4.15;"4,04"
06-07-2012;7.96;3.98;"3,98"
09-07-2012;7.88;3.83;"4,05"
10-07-2012;7.84;3.80;"4,04"
11-07-2012;7.80;3.75;"4,05"
12-07-2012;7.60;3.45;"4,15"
13-07-2012;7.58;3.30;"4,28"
16-07-2012;7.53;3.33;"4,2"
17-07-2012;7.52;3.29;"4,23"
18-07-2012;7.03;3.05;"3,98"
19-07-2012;6.73;2.85;"3,88"
20-07-2012;7.00;3.15;"3,85"
23-07-2012;7.01;3.15;"3,86"
24-07-2012;7.09;3.15;"3,94"
25-07-2012;6.79;3.00;"3,79"
26-07-2012;6.69;2.89;"3,8"
27-07-2012;6.65;2.79;"3,86"
30-07-2012;6.57;2.65;"3,92"
31-07-2012;6.74;2.85;"3,89"
01-08-2012;6.89;2.87;"4,02"
02-08-2012;7.00;2.85;"4,15"
03-08-2012;7.05;3.00;"4,05"
06-08-2012;7.03;3.00;"4,03"
07-08-2012;7.00;3.00;4
08-08-2012;7.03;2.98;"4,05"
09-08-2012;7.02;2.95;"4,07"
10-08-2012;7.09;2.95;"4,14"
13-08-2012;7.40;3.10;"4,3"
14-08-2012;7.56;3.10;"4,46"
15-08-2012;7.38;2.90;"4,48"
16-08-2012;7.57;2.95;"4,62"
17-08-2012;7.60;2.90;"4,7"
20-08-2012;7.58;2.95;"4,63"
21-08-2012;7.85;2.87;"4,98"
22-08-2012;7.96;2.98;"4,98"
23-08-2012;8.08;3.12;"4,96"
24-08-2012;8.01;3.15;"4,86"
27-08-2012;8.03;3.02;"5,01"
28-08-2012;7.86;2.89;"4,97"
29-08-2012;7.66;2.85;"4,81"
30-08-2012;7.54;2.73;"4,81"
31-08-2012;7.99;2.82;"5,17"
03-09-2012;8.09;3.05;"5,04"
04-09-2012;8.08;2.98;"5,1"
05-09-2012;8.06;2.99;"5,07"
06-09-2012;8.15;2.60;"5,55"
07-09-2012;8.24;2.56;"5,68"
10-09-2012;7.80;2.35;"5,45"
11-09-2012;7.67;2.21;"5,46"
12-09-2012;7.84;2.26;"5,58"
13-09-2012;7.70;2.19;"5,51"
14-09-2012;7.35;1.74;"5,61"
17-09-2012;7.30;1.79;"5,51"
18-09-2012;7.40;1.70;"5,7"
19-09-2012;7.49;1.74;"5,75"
20-09-2012;7.50;1.87;"5,63"
21-09-2012;7.41;1.92;"5,49"
24-09-2012;7.23;2.00;"5,23"
25-09-2012;7.35;2.08;"5,27"
26-09-2012;7.49;2.16;"5,33"
27-09-2012;7.69;2.40;"5,29"
28-09-2012;7.70;2.22;"5,48"
01-10-2012;7.75;2.36;"5,39"
02-10-2012;7.81;2.20;"5,61"
03-10-2012;7.55;1.90;"5,65"
04-10-2012;7.65;2.13;"5,52"
05-10-2012;7.82;2.00;"5,82"
08-10-2012;7.85;2.00;"5,85"
09-10-2012;7.82;1.91;"5,91"
10-10-2012;7.71;1.80;"5,91"
11-10-2012;7.79;1.89;"5,9"
12-10-2012;7.86;1.95;"5,91"
15-10-2012;7.62;1.68;"5,94"
16-10-2012;7.83;1.67;"6,16"
17-10-2012;8.16;1.63;"6,53"
18-10-2012;8.00;1.66;"6,34"
19-10-2012;7.91;1.35;"6,56"
22-10-2012;7.89;1.35;"6,54"
23-10-2012;7.78;1.05;"6,73"
24-10-2012;7.65;1.05;"6,6"
25-10-2012;7.64;0.99;"6,65"
26-10-2012;7.81;1.07;"6,74"
29-10-2012;8.02;1.11;"6,91"
30-10-2012;8.07;1.12;"6,95"
31-10-2012;8.12;1.23;"6,89"
01-11-2012;8.01;1.16;"6,85"
02-11-2012;8.10;1.25;"6,85"
05-11-2012;8.20;1.30;"6,9"
06-11-2012;8.28;1.23;"7,05"
07-11-2012;8.15;1.10;"7,05"
08-11-2012;8.17;1.17;7
09-11-2012;8.25;1.17;"7,08"
12-11-2012;8.95;1.18;"7,77"
13-11-2012;8.29;1.12;"7,17"
14-11-2012;7.85;1.00;"6,85"
15-11-2012;7.19;1.00;"6,19"
16-11-2012;6.90;0.93;"5,97"
19-11-2012;6.63;0.92;"5,71"
20-11-2012;6.64;0.90;"5,74"
21-11-2012;6.69;0.94;"5,75"
22-11-2012;6.78;0.97;"5,81"
23-11-2012;7.01;0.95;"6,06"
26-11-2012;6.85;0.88;"5,97"
27-11-2012;6.86;0.81;"6,05"
28-11-2012;6.84;0.75;"6,09"
29-11-2012;6.65;0.79;"5,86"
30-11-2012;6.22;0.75;"5,47"
03-12-2012;6.02;0.75;"5,27"
04-12-2012;5.73;0.68;"5,05"
05-12-2012;6.14;0.75;"5,39"
06-12-2012;6.36;0.80;"5,56"
07-12-2012;6.73;0.65;"6,08"
10-12-2012;7.04;0.70;"6,34"
11-12-2012;6.80;0.60;"6,2"
12-12-2012;6.75;0.54;"6,21"
13-12-2012;6.70;0.48;"6,22"
14-12-2012;6.56;0.37;"6,19"
17-12-2012;6.41;0.39;"6,02"
18-12-2012;6.69;0.30;"6,39"
19-12-2012;6.90;0.29;"6,61"
20-12-2012;7.05;0.30;"6,75"
21-12-2012;6.95;0.25;"6,7"
24-12-2012;6.92;0.26;"6,66"
26-12-2012;6.85;0.23;"6,62"
27-12-2012;6.87;0.25;"6,62"
28-12-2012;6.40;0.20;"6,2"
31-12-2012;6.37;0.15;"6,22"
